Left ArrowRight Arrow

34.02893, -84.19858

Hourly Observations for June 18, 2024

Temp ( °F °C ) Dew Point ( °F °C ) Humidity (%) Winds ( mph kmh ) Pressure ( in mb ) Visibility ( mi km ) Precip ( " mm )
12:53 am 00:53 Clear 78 25.6 69 20.6 74 74 SE 3 6 30.09 1019 10 16 0.00 0.00
1:53 am 01:53 Mostly Cloudy 77 25 68 20 74 74 SE 5 7 30.09 1019 10 16 0.00 0.00
2:53 am 02:53 Mostly Clear 76 24.4 66 18.9 71 71 SE 3 6 30.09 1019 10 16 0.00 0.00
3:53 am 03:53 Mostly Cloudy 75 23.9 66 18.9 74 74 VRB 3 6 30.09 1019 10 16 0.00 0.00
4:53 am 04:53 Mostly Cloudy 75 23.9 65 18.3 71 71 SSE 3 6 30.08 1019 10 16 0.00 0.00
5:53 am 05:53 Partly Cloudy 73 22.8 64 17.8 73 73 Calm 30.09 1019 10 16 0.00 0.00
6:53 am 06:53 Mostly Cloudy 72 22.2 62 16.7 71 71 Calm 30.10 1019 10 16 0.00 0.00
7:53 am 07:53 Cloudy 73 22.8 63 17.2 71 71 VRB 3 6 30.12 1020 10 16 0.00 0.00
8:53 am 08:53 Partly Cloudy 75 23.9 65 18.3 71 71 VRB 3 6 30.14 1021 10 16 0.00 0.00
9:53 am 09:53 Mostly Sunny 78 25.6 65 18.3 64 64 VRB 6 9 30.14 1021 10 16 0.00 0.00
10:53 am 10:53 Mostly Sunny 81 27.2 65 18.3 58 58 E 9 15 30.13 1020 10 16 0.00 0.00
11:53 am 11:53 Mostly Cloudy 81 27.2 64 17.8 57 57 undefined N/A 30.13 1020 10 16 0.00 0.00
12:53 pm 12:53 Partly Cloudy 82 27.8 64 17.8 55 55 VRB 6 9 30.12 1020 10 16 0.00 0.00
1:53 pm 13:53 Partly Cloudy 86 30 63 17.2 46 46 VRB 7 11 30.11 1020 10 16 0.00 0.00
2:53 pm 14:53 Mostly Cloudy 85 29.4 63 17.2 48 48 undefined N/A 30.09 1019 10 16 0.00 0.00
3:53 pm 15:53 Mostly Cloudy 86 30 62 16.7 45 45 undefined N/A 30.09 1019 10 16 0.00 0.00
4:53 pm 16:53 Sunny 86 30 62 16.7 45 45 ESE 9 15 30.08 1019 10 16 0.00 0.00
5:53 pm 17:53 Partly Cloudy 85 29.4 61 16.1 45 45 VRB 6 9 30.08 1019 10 16 0.00 0.00
6:53 pm 18:53 Mostly Sunny 83 28.3 61 16.1 48 48 VRB 6 9 30.08 1019 10 16 0.00 0.00
7:53 pm 19:53 Mostly Sunny 82 27.8 62 16.7 51 51 E 9 15 30.09 1019 10 16 0.00 0.00
8:53 pm 20:53 Mostly Clear 81 27.2 61 16.1 51 51 VRB 3 6 30.09 1019 10 16 0.00 0.00
9:53 pm 21:53 Clear 79 26.1 61 16.1 54 54 VRB 3 6 30.11 1020 10 16 0.00 0.00
10:53 pm 22:53 Clear 78 25.6 61 16.1 56 56 Calm 30.12 1020 10 16 0.00 0.00
11:53 pm 23:53 Clear 76 24.4 60 15.6 58 58 VRB 5 7 30.13 1020 10 16 0.00 0.00

Powered by Vaisala Xweather